Location: Paderno d�Adda
(45.6667°N, 9.4333°E)
Time: 17:07:29
(UTC+00:00)

Nadezhda 4 Rocket - Pass Details

Date: 19 September 2020
Orbit: 949 x 993 km, 82.9° (Epoch: 20 October)

Event Time Altitude Azimuth Distance (km) Brightness Sun altitude
Rises 19:15:06 0° 350° (N) 3,637 7.5 -19.5°
Reaches altitude 10° 19:17:36 10° 350° (N) 2,685 6.7 -19.9°
Maximum altitude 19:23:44 81° 265° (W) 967 4.0 -20.9°
Enters shadow 19:29:17 13° 178° (S) 2,461 5.8 -21.8°
